SL-16 DEB, 27689

Orbit data source: Space-Track

SL-16 DEB, 27689 is space debris in SSO originally from a launch on Mon, 10 Dec 2001 UTC launched from the Tyuratam Missile And Space Complex (TTMTR). Debris objects in space refer to the collection of defunct objects orbiting the Earth. Examples of debris include non-operational satellites, rocket bodies, and fragments generated from explosions, collisions, or faulty payload assembly.

Loading next visibility...
Identifier
27689, 2001-056H
Orbit
SSO
Country
Flag of CISCIS
Related business
Manufacturer
Yuzhnoe
Mission
Spacecraft
Bus & Motor
SEP MOTOR COVER, Unknown motor
Mass
~1 kg wet, ~1 kg dry
Launch date (UTC)
2001-12-10 (24 years ago)
Launch vehicle
Unknown
Launch site
Tyuratam Missile And Space Complex (TTMTR)
Object type
Payload
Rocket body
Debris
Shape & HBR
Cone, 0.5 m
Radar Cross Section
0.635 m², Small (<0.1 m²)

Expand to show TLE details & history
Last TLE update: 23 hours ago

TLE from 23 hours ago
0 SL-16 DEB
1 27689U 01056H   25309.84883258  .00000021  00000-0  12603-3 0  9997
2 27689  99.9214 264.7992 0208981  68.6856 321.8351 13.26010920156463
Epoch: 2025-11-05T20:22Z
TLE epoch observation values (Epoch: 2025-11-05T20:22:19.134Z)
Latitude
28.58156°
Longitude
-91.5359°
Altitude
1,042.613 km
Speed
7.392 km/s
True Right ascension
17h 17m 26s
True Declination
28° 26' 34"
Sunlit
Object was in daylight at epoch
Visualization orbit readout
Latitude
Unknown
Longitude
Unknown
Altitude
Unknown
Speed
Unknown
Apparent Right ascension
Unknown
Apparent Declination
Unknown
Sunlit
N/A
Visualization observer readout
Local Sidereal Time
15:53:39
Azimuth
Unknown
Elevation
Unknown
Doppler factor
Unknown
Orbital elements
Apogee altitude
1,316.706 km
Perigee altitude
1,001.675 km
Semi-major axis
7,537.327 km
Eccentricity
0.0209
Inclination
99.9214°
RAAN
264.7992°
Arg. of periapsis
68.6856°
True anomaly
320.32449°
Mean anomaly
321.8351°
Eccentric anomaly
321.08292°
Mean motion
3.31678 °/min
Orbital period
108.54 mins
BSTAR
0.00012603
Loading maneuver chart data...
Computing Atmospheric mass density...
Loading historical data...
Loading historical data...
Loading historical data...
Loading historical data...
Loading historical data...
Loading historical data...
Loading historical data...

Documentation

Showing up to 5 results
|